Find Starlink 37077

NORAD ID: 68169 Int'l Des: 2026-050 Owner: SPXS Country: US Constellation: starlink operational
LEOCIRCULAR

Live Position

Loading 3D Globe...

About Starlink 37077

Description loading...

Upcoming Passes

Passes for default location (London). Set your location on the main map for personalized predictions.

Altitude History

Loading altitude history...

Two-Line Element Set

1 68169U 26050C 26120.93484859 .00030591 00000-0 79152-3 0 9999
2 68169 53.1608 25.3958 0001282 92.0422 268.0730 15.38842334 8666
Epoch: Apr 30, 2026 • Age: 10 hours

Current Status

Altitude 454.4 km
Velocity 7.65 km/s
Sub-Earth Point 49.76°N, 158.67°E
Launch Date Mar 14, 2026
Age 0.1 years
Type internet

Technical Details

Classification Payload
Mass 575.00 kg
Dry Mass 530.00 kg
Total Mass 575.00 kg
Length 0.30 m
Diameter 4.10 m
Span 29.00 m
Shape Box + pan
Manufacturer SPXS
Bus Type Starlink V2MO
Phase Status In Orbit
Owner/State SPXS/US

Most Searched